GW0940 Weather Reports


time (UTC)temp
C
wind
direction
speed
KPH
gust
KPH
rain 1hr
cm
rain 24hr
cm
rain mn
cm
humidity
%
barometer
mb
20260504182625 25 355 3.2 9.7 0.00 0.00 0.00 34 1012.6
20260504182123 25 209 1.6 9.7 0.00 0.00 0.00 33 1012.8
20260504181620 25 15 3.2 11.3 0.00 0.00 0.00 33 1012.9
20260504181117 25 358 6.4 8.0 0.00 0.00 0.00 34 1012.6
20260504180617 25 152 3.2 6.4 0.00 0.00 0.00 36 1012.6
20260504180115 25 149 6.4 9.7 0.00 0.00 0.00 36 1012.9
20260504175612 25 186 0.0 8.0 0.00 0.00 0.00 38 1013.2
20260504175109 25 166 4.8 11.3 0.00 0.00 0.00 33 1013.1
20260504174607 26 0 1.6 8.0 0.00 0.00 0.00 34 1013.0
20260504174103 25 261 0.0 8.0 0.00 0.00 0.00 34 1013.1
20260504173600 24 157 0.0 8.0 0.00 0.00 0.00 39 1013.1
20260504173058 24 157 4.8 6.4 0.00 0.00 0.00 41 1013.1
20260504172554 24 158 4.8 6.4 0.00 0.00 0.00 38 1013.5
20260504172050 24 307 0.0 4.8 0.00 0.00 0.00 35 1013.3
20260504171547 25 166 0.0 11.3 0.00 0.00 0.00 38 1013.4
20260504171044 24 120 3.2 9.7 0.00 0.00 0.00 38 1013.5
20260504170539 24 5 0.0 11.3 0.00 0.00 0.00 34 1013.7
20260504150924 22 231 3.2 4.8 0.00 0.00 0.00 40 1015.0
20260504150420 22 154 4.8 4.8 0.00 0.00 0.00 44 1014.9
20260504140847 20 172 0.0 9.7 0.00 0.00 0.00 46 1015.2
20260504140343 20 7 0.0 4.8 0.00 0.00 0.00 43 1015.4
20260504130812 16 180 1.6 3.2 0.00 0.00 0.00 55 1015.6
20260504130308 16 263 0.0 8.0 0.00 0.00 0.00 53 1015.9
20260504120231 13 5 1.6 4.8 0.00 0.00 0.00 63 1016.0
20260504110659 9 66 0.0 1.6 0.00 0.00 0.00 85 1016.4
20260504110155 9 120 0.0 3.2 0.00 0.00 0.00 83 1016.4
20260504100119 10 105 1.6 3.2 0.00 0.00 0.00 78 1016.2
20260504081512 10 99 0.0 1.6 0.00 0.00 0.00 76 1016.5
20260504081008 10 111 0.0 1.6 0.00 0.00 0.00 75 1016.5
20260504080504 10 106 0.0 1.6 0.00 0.00 0.00 74 1016.4
20260504050317 7 126 0.0 3.2 0.00 0.00 0.00 85 1016.6
20260504045814 7 123 1.6 3.2 0.00 0.00 0.00 85 1016.5
20260504045309 7 120 0.0 3.2 0.00 0.00 0.00 84 1016.6
20260504044806 7 126 0.0 3.2 0.00 0.00 0.00 85 1016.8
20260504044304 7 120 1.6 1.6 0.00 0.00 0.00 85 1016.6
20260504043801 7 120 1.6 3.2 0.00 0.00 0.00 87 1016.7
20260504043258 7 117 1.6 3.2 0.00 0.00 0.00 88 1016.7
20260504042755 6 107 3.2 3.2 0.00 0.00 0.00 89 1016.6
20260504042251 6 98 0.0 1.6 0.00 0.00 0.00 91 1016.4
20260504041748 6 117 0.0 3.2 0.00 0.00 0.00 92 1016.7
20260504041244 6 120 1.6 3.2 0.00 0.00 0.00 91 1016.6
20260504040740 6 96 0.0 1.6 0.00 0.00 0.00 91 1016.6
20260504040238 6 128 3.2 3.2 0.00 0.00 0.00 92 1016.6
20260504035733 6 126 1.6 3.2 0.00 0.00 0.00 93 1016.6
20260504035231 6 127 3.2 3.2 0.00 0.00 0.00 92 1016.5
20260504034728 6 107 3.2 3.2 0.00 0.00 0.00 92 1016.5
20260504034225 6 120 1.6 3.2 0.00 0.00 0.00 91 1016.6
20260504033723 5 114 1.6 3.2 0.00 0.00 0.00 91 1016.5
20260504033220 5 98 1.6 1.6 0.00 0.00 0.00 90 1016.6
20260504032717 5 96 1.6 3.2 0.00 0.00 0.00 90 1016.8
20260504032214 6 117 1.6 3.2 0.00 0.00 0.00 90 1016.6
20260504031711 6 131 1.6 3.2 0.00 0.00 0.00 88 1016.4
20260504031208 6 135 3.2 3.2 0.00 0.00 0.00 87 1016.7
20260504030704 6 117 1.6 3.2 0.00 0.00 0.00 87 1016.4
20260504030202 6 111 1.6 3.2 0.00 0.00 0.00 87 1016.4
20260504025658 6 106 0.0 3.2 0.00 0.00 0.00 87 1016.4
20260504025155 6 135 3.2 3.2 0.00 0.00 0.00 88 1016.3
20260504024652 6 123 1.6 3.2 0.00 0.00 0.00 88 1016.2
20260504024148 6 142 3.2 3.2 0.00 0.00 0.00 87 1016.5
20260504023645 6 114 1.6 3.2 0.00 0.00 0.00 88 1016.5
20260504023141 6 131 1.6 3.2 0.00 0.00 0.00 88 1016.4
20260504022637 6 131 1.6 3.2 0.00 0.00 0.00 85 1016.4
20260504022133 6 117 1.6 3.2 0.00 0.00 0.00 85 1016.4
20260504021632 6 131 1.6 3.2 0.00 0.00 0.00 85 1016.2
20260504021128 7 120 0.0 3.2 0.00 0.00 0.00 83 1016.4
20260504020625 7 111 0.0 3.2 0.00 0.00 0.00 85 1016.5
20260504020121 7 135 3.2 3.2 0.00 0.00 0.00 83 1016.3
20260504015618 7 120 1.6 3.2 0.00 0.00 0.00 81 1016.2
20260504015114 7 135 3.2 3.2 0.00 0.00 0.00 79 1016.0
20260504014610 8 114 1.6 3.2 0.00 0.00 0.00 78 1016.1
20260504014107 8 90 1.6 1.6 0.00 0.00 0.00 75 1016.2
20260504013605 8 114 1.6 3.2 0.00 0.00 0.00 76 1016.1
20260504013102 8 127 0.0 3.2 0.00 0.00 0.00 77 1015.9
20260504012559 8 157 1.6 1.6 0.00 0.00 0.00 74 1016.3
20260504012057 8 139 3.2 3.2 0.00 0.00 0.00 74 1016.0
20260504011553 8 140 1.6 3.2 0.00 0.00 0.00 73 1016.1
20260504011049 8 114 1.6 1.6 0.00 0.00 0.00 73 1015.9
20260504010545 8 117 0.0 3.2 0.00 0.00 0.00 73 1015.7
20260504010041 9 154 1.6 3.2 0.00 0.00 0.00 75 1015.8
20260504005538 10 114 1.6 3.2 0.00 0.00 0.00 73 1015.9
20260504005036 10 126 0.0 1.6 0.00 0.00 0.00 68 1015.8
20260504004533 10 114 0.0 1.6 0.00 0.00 0.00 67 1015.8
20260504004030 10 120 0.0 1.6 0.00 0.00 0.00 64 1015.7
20260504003526 11 106 0.0 1.6 0.00 0.00 0.00 68 1015.6
20260504003023 11 106 0.0 1.6 0.00 0.00 0.00 64 1015.6
20260504002520 11 106 0.0 1.6 0.00 0.00 0.00 64 1015.6
20260504002018 11 106 1.6 1.6 0.00 0.00 0.00 64 1015.4
20260504001515 11 114 0.0 1.6 0.00 0.00 0.00 63 1015.5
20260504001011 11 123 0.0 3.2 0.00 0.00 0.00 62 1015.5
20260504000508 12 147 3.2 3.2 0.00 0.00 0.00 61 1015.5
20260504000006 12 151 3.2 3.2 0.00 0.00 0.00 63 1015.6
20260503235504 13 140 0.0 3.2 0.00 0.00 0.00 60 1015.3
20260503235000 13 131 0.0 3.2 0.00 0.00 0.00 55 1015.3
20260503234458 13 147 3.2 3.2 0.00 0.00 0.00 58 1015.3
20260503233956 14 106 0.0 0.0 0.00 0.00 0.00 51 1015.1
20260503233452 15 99 0.0 1.6 0.00 0.00 0.00 49 1015.3
20260503232948 15 99 0.0 0.0 0.00 0.00 0.00 48 1015.1
20260503232446 15 352 0.0 1.6 0.00 0.00 0.00 44 1015.1
20260503231943 15 0 0.0 0.0 0.00 0.00 0.00 45 1015.2
20260503231441 15 0 0.0 3.2 0.00 0.00 0.00 43 1015.2
20260503230937 16 264 0.0 3.2 0.00 0.00 0.00 43 1015.1
20260503230434 16 261 0.0 3.2 0.00 0.00 0.00 41 1015.1
20260503225931 16 126 1.6 1.6 0.00 0.00 0.00 41 1015.1
20260503225428 16 15 0.0 3.2 0.00 0.00 0.00 39 1015.3
20260503224924 16 90 1.6 6.4 0.00 0.00 0.00 42 1015.2
20260503224421 16 270 0.0 1.6 0.00 0.00 0.00 38 1015.2
20260503223919 16 106 0.0 4.8 0.00 0.00 0.00 38 1015.4
20260503223416 16 145 1.6 4.8 0.00 0.00 0.00 41 1015.0
20260503222916 16 145 1.6 4.8 0.00 0.00 0.00 39 1015.1
20260503222415 16 139 3.2 6.4 0.00 0.00 0.00 38 1015.2
20260503221913 16 150 4.8 6.4 0.00 0.00 0.00 40 1015.4
20260503221411 16 152 0.0 4.8 0.00 0.00 0.00 38 1015.3
20260503220908 17 135 3.2 4.8 0.00 0.00 0.00 38 1015.1
20260503220404 16 152 3.2 8.0 0.00 0.00 0.00 37 1015.4
20260503215901 16 148 4.8 16.1 0.00 0.00 0.00 39 1015.2
20260503215358 17 180 1.6 4.8 0.00 0.00 0.00 38 1015.5
20260503214856 17 129 4.8 6.4 0.00 0.00 0.00 41 1015.5
20260503214353 17 161 3.2 6.4 0.00 0.00 0.00 40 1015.5
20260503213850 17 132 3.2 9.7 0.00 0.00 0.00 37 1015.4
20260503213348 17 173 0.0 3.2 0.00 0.00 0.00 40 1015.4
20260503212844 16 267 4.8 6.4 0.00 0.00 0.00 36 1015.6
20260503212342 17 204 8.0 8.0 0.00 0.00 0.00 36 1015.4
20260503211839 17 195 11.3 11.3 0.00 0.00 0.00 39 1015.2
20260503211336 16 151 4.8 14.5 0.00 0.00 0.00 38 1015.5
20260503210831 16 160 4.8 11.3 0.00 0.00 0.00 39 1015.7
20260503210329 17 158 6.4 8.0 0.00 0.00 0.00 38 1015.4
20260503205824 17 141 3.2 8.0 0.00 0.00 0.00 39 1015.5
20260503205320 17 260 8.0 9.7 0.00 0.00 0.00 39 1015.5
20260503204817 17 294 0.0 8.0 0.00 0.00 0.00 40 1015.6
20260503204315 17 153 8.0 8.0 0.00 0.00 0.00 39 1015.5
20260503203812 17 173 4.8 11.3 0.00 0.00 0.00 37 1015.4
20260503203309 17 16 0.0 9.7 0.00 0.00 0.00 36 1015.6
20260503202806 16 132 3.2 9.7 0.00 0.00 0.00 38 1015.6
20260503202304 16 150 6.4 9.7 0.00 0.00 0.00 37 1015.7
20260503201801 17 164 4.8 6.4 0.00 0.00 0.00 40 1015.7
20260503201259 17 277 1.6 6.4 0.00 0.00 0.00 36 1015.8
20260503200756 16 26 3.2 14.5 0.00 0.00 0.00 37 1016.0
20260503200251 16 153 8.0 8.0 0.00 0.00 0.00 38 1016.1
20260503195749 16 236 3.2 8.0 0.00 0.00 0.00 36 1016.2
20260503195246 17 165 8.0 8.0 0.00 0.00 0.00 38 1016.3
20260503194743 17 10 3.2 9.7 0.00 0.00 0.00 36 1016.2
20260503194239 16 150 6.4 12.9 0.00 0.00 0.00 38 1016.5
20260503193735 16 155 4.8 12.9 0.00 0.00 0.00 39 1016.6
20260503193231 16 156 11.3 11.3 0.00 0.00 0.00 38 1016.7
20260503192727 16 134 6.4 19.3 0.00 0.00 0.00 38 1016.7
20260503192222 16 135 3.2 8.0 0.00 0.00 0.00 38 1016.7
20260503191720 16 147 0.0 11.3 0.00 0.00 0.00 37 1016.8
20260503191217 16 0 4.8 12.9 0.00 0.00 0.00 37 1016.5
20260503190713 16 0 3.2 8.0 0.00 0.00 0.00 38 1016.7
20260503190210 16 80 3.2 6.4 0.00 0.00 0.00 38 1016.8
20260503185708 16 265 3.2 12.9 0.00 0.00 0.00 39 1016.9
20260503185202 16 174 6.4 8.0 0.00 0.00 0.00 40 1016.9
20260503184657 16 158 6.4 11.3 0.00 0.00 0.00 41 1016.8
20260503184154 15 158 8.0 8.0 0.00 0.00 0.00 41 1017.1
20260503183650 15 146 6.4 17.7 0.00 0.00 0.00 41 1017.2
20260503183148 16 147 3.2 11.3 0.00 0.00 0.00 38 1017.0